Время (UTC), дата Ветер
(°,м/с) 
Видим.   Явления Облачность Т
(°С)
Тd
(°С)
f(%) Тe
(°С)
Pmin
(гПа)
dP
(гПа)
Po
(мм)
O2
(г/м3)
Тmin Tmax R s Состояние
почвы
00 05.12.13 230 (ЮЗ) 10 км    5/4 600 м средняя 
[Sc|Ac trans]
-1.5 -2.6 92 -4  1016.8  -1.6  755  306           
03 05.12.13 220 (ЮЗ) 10 км    6/6 630 м 
[Sc]
-0.1 -0.6 97 -3  1014.6  -2.1  754  304  -2         
06 05.12.13 240 (ЮЗ) 10 км    9/5 630 м средняя 
[Sc|Ac trans]
+1.3 +0.5 94 -1  1013.8  -0.8  753  302           
09 05.12.13 250 (З) 9-13{13}  10 км    9/6 570 м средняя 
[Sc|Ac trans]
+5.5 +2.3 80 +2  1012.3  -1.3  752  297           
12 05.12.13 250 (З) 9-13{16}  10 км    8/5 700 м средняя, верхняя 
[Sc|Ac trans|Ci fib]
+6.3 +1.3 70 +3  1010.1  -1.9  751  295           
15 05.12.13 230 (ЮЗ) 7-10{13}  10 км  слаб. дождь  9/6 800 м средняя 
[Sc|As op]
+4.2 +2.1 86 +1  1009.7  -0.6  750  297    +6.6  0.0     
18 05.12.13 230 (ЮЗ) 6{13}  10 км  {дождь}  8/4 600 м кучево-дожд., средняя 
[Cb calv|Ac trans]
+4 +2.2 88 +1  1008.6  -1  750  297           
21 05.12.13 300 (СЗ) 10 км    9/4 300 м кучево-дожд., средняя 
[Cb calv|Ac trans]
+1.7 -1.4 80 -1  1009.7  0.9  750  301           
00 06.12.13 270 (З) 4000 м  дымка{снег}  9/4 300 м средняя 
[Sc|Ac trans]
-0.2 -1.5 91 -3  1012  2.2  752  303           
03 06.12.13 280 (З) 10 км    3/0 средняя 
[Ac trans]
-0.9 -3.3 84 -3  1013.3  1.2  753  305  -1    0.0     
06 06.12.13 250 (З) 4000 м  дымка  3/0 средняя 
[Ac trans]
-1.2 -2 94 -3  1014.6  1.3  754  305  -3.2         
09 06.12.13 230 (ЮЗ) 10 км    9/3 600 м средняя, верхняя 
[Sc|Ac trans|Ci fib]
+2.8 -2 71 1014  -0.4  754  301           
12 06.12.13 210 (ЮЗ) 5{10}  10 км    9/4 700 м средняя, верхняя 
[Sc|Ac trans|Ci fib]
+2.7 -1.8 72 1012.4  -1.6  752  300           
18 06.12.13 180 (Ю) 10 км    9/6 870 м средняя 
[Sc|Ac trans]
+1.9 +0 87 1008.9  -1.6  750  300           
21 06.12.13 190 (Ю) 10 км  слаб. ливневой дождь  10/6 840 м кучево-дожд., средняя 
[Cb calv|Ac und]
+3.2 +2.2 93 1006.2  -2.5  748  297           
03 07.12.13 250 (З) 5{11}  4000 м  слаб. ливневой дождь  10/8 240 м кучево-дожд., средняя 
[Cb calv|Ac und]
+4.2 +3.5 95 +2  1005.1  0.1  747  296  +0.9       
06 07.12.13 230 (ЮЗ) 4000 м  слаб. ливневой дождь  10/8 150 м кучево-дожд., средняя 
[Cb calv|Ac und]
+1.9 +1.7 99 1006.2  1.1  748  299           
09 07.12.13 210 (ЮЗ) 10 км  {ливн. осадки}  10/8 180 м кучево-дожд., средняя 
[Cb calv|Ac und]
+2.2 +1.6 96 +1  1006.8  0.6  748  299           
12 07.12.13 330 (СЗ) 50  10 км    10/8 600 м средняя 
[Sc|Ac As]
+2.7 +2.4 98 -6  1006.5  0.6  747  298           
15 07.12.13 230 (ЮЗ) 4000 м  дымка  10/6 400 м средняя 
[Sc|Ac und]
+1.9 +1.6 98 +3  1006.4  -0.1  748  299    +4.1     
18 07.12.13 220 (ЮЗ) 2000 м  слаб. ливневой снег  10/8 100 м кучево-дожд., средняя 
[Cb calv|As op]
+0.3 -0.1 97 -1  1007.4  0.9  749  301           
21 07.12.13 250 (З) 4000 м  дымка{ливн. осадки, снег}  10/8 180 м средняя 
[Sc|Ac und]
+0.5 +0.2 98 -1  1007.5  749  301           
00 08.12.13 230 (ЮЗ) 0200 м  туман{ливн. осадки, снег}  ?/?  
-0.8 -0.8 100 -3  1008.7  1.1  749  303           
03 08.12.13 230 (ЮЗ) 4000 м  дымка{туман} [диам. изморози 1 мм]  8/8 100 м 
[St]
-1 -1.6 96 -4  1009  0.3  750  303  -1.1       
06 08.12.13 240 (ЮЗ) 10 км  слаб. снег{туман} [диам. изморози 0.1 мм]  9/6 600 м средняя 
[Sc|Ac trans]
-0.6 -1 97 -3  1010.3  1.2  751  303  -1.3         
09 08.12.13 250 (З) 10 км  слаб. ливневой снег  10/8 450 м кучево-дожд., средняя 
[Cb calv|Ac trans]
+0.8 -0.1 94 -2  1011.4  1.2  752  302           
12 08.12.13 250 (З) 10 км  {ливн. осадки, снег} [диам. изморози 0 мм]  10/6 450 м кучево-дожд., средняя 
[Cb calv|Ac und]
+1.5 -0.4 87 -1  1011.8  0.3  752  301           
15 08.12.13 270 (З) 10 км    9/6 450 м кучево-дожд., средняя 
[Cb calv|Ac trans]
+0.9 -0.1 93 -1  1013  1.2  753  302    +1.5  0.0     
18 08.12.13 260 (З) 4000 м  дымка  8/8 480 м 
[Sc]
-0.2 -0.9 95 -2  1014  0.8  753  304           
21 08.12.13 270 (З) 10 км    9/9 700 м 
[Sc]
+0.6 -1.4 86 -1  1014.8  0.8  754  303           
00 09.12.13 270 (З) 2000 м  слаб. ливневой снег  10/8 210 м кучево-дожд., средняя 
[Cb calv|Ac und]
-0.2 -0.4 99 -2  1015.1  0.2  754  304           
03 09.12.13 270 (З) 10 км  слаб. ливневой снег  10/6 400 м кучево-дожд., средняя 
[Cb calv|Ac und]
-0.6 -1.9 91 -2  1015.3  0.2  754  305  -0.9    0.0     
06 09.12.13 270 (З) 10 км  {ливн. осадки, снег}  6/3 300 м средняя 
[Sc|Ac trans]
-1.3 -3.2 87 -4  1016.4  755  306  -1.4         
09 09.12.13 250 (З) 10 км  слаб. ливневой снег  9/6 400 м кучево-дожд., средняя 
[Cb calv|Ac trans]
-0.5 -2 89 -4  1016.1  -0.1  755  305           
12 09.12.13 250 (З) 10 км  слаб. ливневой снег  9/6 450 м кучево-дожд., средняя 
[Cb calv|Ac trans]
+0.1 -1.8 87 -3  1014.8  -1.3  754  304           
15 09.12.13 250 (З) 6-10{12}  10 км  {ливн. осадки}  9/8 450 м кучево-дожд., средняя 
[Cb calv|Ac trans]
-0.8 -3 85 -4  1013.8  -0.9  753  305    +0.1  0.0     
18 09.12.13 210 (ЮЗ) 7-10{12}  1100 м  снег{ливн. осадки}  10/10 100 м 
[Frnb|Ns]
-2.4 -2.9 96 -7  1010.5  -3.2  751  306           
21 09.12.13 200 (Ю) 7-10{10}  2500 м  слаб. снег  10/10 210 м 
[Frnb|Ns]
-1 -1.4 97 -5  1005.6  -4.6  747  302           
00 10.12.13 210 (ЮЗ) 7-10{11}  2000 м  ливневой снег  10/10 100 м кучево-дожд. 
[Cb calv|Ns]
+0.3 +0.2 99 -4  1001.4  -4.2  744  299           
03 10.12.13 240 (ЮЗ) 2{11}  1100 м  снег{ливн. осадки} [диам. отлож. мокр. снега 4 мм]  10/10 60 м 
[Frnb|Ns]
+0 -0.1 99 -1  999.2  -2.1  743  299  -2.5       
12 10.12.13 340 (С) 10-14{16}  3000 м  метель{снег}  9/6 540 м средняя 
[Sc|Ac trans]
-5.9 -7.1 91 -12  1009.7  4.9  750  310           
15 10.12.13 350 (С) 9-12{14}  4000 м  метель  9/6 500 м средняя 
[Sc|Ac trans]
-7.3 -9.8 82 -14  1014.9  754  313    +0     
18 10.12.13 340 (С) 6-10{14}  10 км  слаб. снег  9/6 600 м средняя 
[Sc|Ac trans]
-6.7 -8.9 84 -11  1018.5  3.6  757  313           
21 10.12.13 340 (С) 7-10{10}  10 км  в посл. час снег  8/8 500 м кучево-дожд. 
[Cb calv]
-8.1 -11.1 79 -14  1020.4  1.7  758  316           
00 11.12.13 350 (С) 5{10}  10 км  в посл. час ливневой снег  9/9 450 м кучево-дожд. 
[Cb calv]
-9.2 -12.4 77 -14  1022.3  1.8  759  318           
03 11.12.13 310 (СЗ) 5{10}  10 км  слаб. ливневой снег  9/6 450 м кучево-дожд., средняя 
[Cb calv|Ac trans]
-10.4 -12.5 84 -15  1023.5  1.1  760  320  -10.4    0.0     
06 11.12.13 310 (СЗ) 3{10}  4000 м  слаб. снег{ливн. осадки}  9/9 480 м 
[Sc]
-10.4 -12.3 86 -13  1024.4  0.7  761  320  -11         
09 11.12.13 320 (СЗ) 10 км  позёмок{снег}  6/3 600 м средняя 
[Sc|Ac trans]
-9.1 -12.2 78 -14  1024.2  -0.1  761  318           
12 11.12.13 320 (СЗ) 7-10{11}  10 км    6/4 300 м средняя 
[Sc|Ac trans]
-8.7 -12.2 76 -14  1024.2  761  318           
15 11.12.13 320 (СЗ) 5{10}  10 км    8/0 средняя 
[Ac trans]
-8.7 -12 77 -13  1024.2  761  318    -8.3  0.0     
18 11.12.13 330 (СЗ) 5{10}  10 км  в посл. час снег  10/6 180 м средняя 
[Frnb|As op]
-9 -11.2 84 -14  1024.6  0.3  761  318           
21 11.12.13 320 (СЗ) 10 км  слаб. снег  10/6 450 м средняя 
[Frnb|As op]
-9.6 -11.8 84 -14  1025.6  0.9  762  319           
00 12.12.13 320 (СЗ) 10 км  позёмок{снег}  10/10 570 м 
[Sc]
-9.3 -11.6 83 -14  1025.9  0.3  762  319           
03 12.12.13 340 (С) 10 км    10/8 800 м средняя 
[Sc|Ac und]
-10.1 -12.2 85 -12  1026.3  0.3  762  320  -10.2    0.0     
06 12.12.13 360 (С) 4000 м  слаб. снег  10/10 500 м 
[Sc]
-9.3 -11 87 -12  1027.8  1.4  763  320           
09 12.12.13 030 (СВ) 10 км  слаб. снег{ливн. осадки}  8/6 540 м средняя 
[Sc|Ac trans]
-7.6 -9.7 85 -10  1027.7  763  317           
12 12.12.13 020 (С) 3000 м  слаб. ливневой снег  10/8 480 м кучево-дожд., средняя 
[Cb calv|Ac und]
-7.8 -9.8 86 -11  1027.4  -0.2  763  318           
15 12.12.13 060 (СВ) 10 км  {ливн. осадки}  9/9 540 м 
[Sc]
-11.3 -13 87 -15  1028.2  0.6  764  322    -7  0.5     
18 12.12.13 050 (СВ) 10 км  {ливн. осадки}  5/5 480 м 
[Sc]
-13.5 -14.5 92 -17  1028.5  0.1  764  325           
21 12.12.13 080 (В) 10 км    10/10 150 м 
[St]
-10.5 -10.9 97 -14  1028.6  0.2  764  321           
00 13.12.13 070 (В) 0400 м  слаб. снег{туман} [диам. изморози 1 мм]  ?/?  
-12.6 -12.6 100 -15  1028.6  -0.1  764  324           
03 13.12.13 110 (В) 4000 м  слаб. снег{туман} [диам. изморози 3 мм]  10/10 120 м 
[Sc]
-11.2 -11.7 96 -11  1027.7  -0.8  763  322  -14.4    0.0     
06 13.12.13 110 (В) 4000 м  дымка{снег, туман} [диам. изморози 3 мм]  10/10 120 м 
[Sc]
-11.3 -12 95 -13  1027.4  -0.2  763  322           
09 13.12.13 тихо ()   10 км  {снег}  6/5 200 м средняя 
[Sc|Ac trans]
-8.4 -8.9 96 -8  1025.7  -1.5  762  318           
12 13.12.13 160 (Ю) 10 км  {снег}  9/0 средняя 
[Ac trans]
-7.9 -8.6 95 -9  1023.7  -2.1  760  316           
15 13.12.13 200 (Ю) 10 км    9/0 средняя 
[Ac trans]
-9.1 -10.4 90 -11  1021.9  -1.6  759  317    -5.5  0.0     
18 13.12.13 230 (ЮЗ) 10 км    9/0 средняя 
[Ac trans]
-9.1 -10.2 92 -13  1020  -1.8  758  317           
21 13.12.13 230 (ЮЗ) 10 км    9/3 300 м средняя 
[Sc|Ac trans]
-8.1 -9.2 92 -13  1017.8  -2  756  315           
00 14.12.13 250 (З) 10 км    9/9 240 м 
[Sc]
-5.2 -6.1 93 -10  1016.4  -1.2  755  311           
03 14.12.13 250 (З) 1500 м  слаб. снег  10/10 150 м 
[Sc]
-2.6 -3 97 -7  1014  -2.2  753  307  -9.5    0.0     
06 14.12.13 270 (З) 5-10{11}  2500 м  слаб. переохл. морось (гололёд){снег, дождь} [диам. гололёда 1 мм]  10/10 150 м 
[St]
-2 -2.4 97 -5  1014.7  0.6  754  306           
09 14.12.13 260 (З) 4{10}  4000 м  снежные зёрна{морось} [диам. гололёда 1 мм]  10/10 210 м 
[St]
-1.3 -2 95 -4  1014.1  -0.5  754  305           
12 14.12.13 260 (З) 4{10}  4000 м  дымка{снег, морось} [диам. гололёда 1 мм]  10/10 360 м 
[Sc]
-0.2 -1.5 91 -3  1014.3  0.2  754  304           
15 14.12.13 270 (З) 4000 м  дымка{снег} [диам. гололёда 0 мм]  9/5 500 м средняя 
[Sc|Ac trans]
-0.1 -1.5 90 -3  1015.5  1.2  755  304    -0.1  0.4     
18 14.12.13 300 (СЗ) 10 км  {снег}  3/0 средняя 
[Ac trans]
-2 -6.6 71 -4  1018.3  2.6  757  308           
21 14.12.13 300 (СЗ) 10 км    ясно 
-3.9 -7.3 77 -6  1020.9  2.4  758  311           
00 15.12.13 280 (З) 10 км    ясно 
-5.9 -8.2 84 -8  1022.7  1.7  760  314           
03 15.12.13 300 (СЗ) 10 км    ясно 
-6.2 -8.5 84 -10  1023.7  0.9  761  314  -6.8         
06 15.12.13 310 (СЗ) 10 км    ясно 
-7.3 -9.4 85 -11  1026  2.2  762  317  -7.7         
09 15.12.13 330 (СЗ) 10 км    ясно 
-5.6 -8.6 79 -10  1027  1.1  763  315           
12 15.12.13 290 (З) 10 км    4/0 верхняя 
[Ci fib]
-5.1 -8.8 75 -8  1028.9  1.7  764  315           
15 15.12.13 280 (З) 10 км    1/0 верхняя 
[Ci fib]
-6.4 -9.1 81 -8  1030.6  1.6  766  317    -4.7       
18 15.12.13 310 (СЗ) 10 км    3/0 верхняя 
[Ci fib]
-7.6 -9.8 84 -10  1032  1.3  767  319           
21 15.12.13 300 (СЗ) 10 км    8/0 средняя, верхняя 
[Ac trans|Ci fib]
-8 -10.1 85 -10  1033.3  1.1  768  320           
00 16.12.13 250 (З) 10 км    9/0 средняя 
[Ac trans]
-9.3 -11.1 86 -9  1034.2  0.9  768  322           
03 16.12.13 350 (С) 10 км    6/0 средняя, верхняя 
[Ac trans|Ci fib]
-9.7 -11 90 -11  1034.7  0.5  769  322  -12         
06 16.12.13 тихо ()   10 км    6/0 средняя, верхняя 
[Ac trans|Ci fib]
-9.9 -11.3 89 -10  1035.8  769  323           
09 16.12.13 260 (З) 10 км    3/0 средняя 
[Ac trans]
-3.6 -9.7 63 -5  1036.2  0.6  770  315           
12 16.12.13 360 (С) 10 км    1/0 средняя 
[Ac trans]
-2.3 -11.1 51 -3  1036.3  0.1  770  314           
15 16.12.13 060 (СВ) 4000 м  дымка  1/0 средняя 
[Ac trans]
-7.8 -9.3 89 -9  1037.1  0.5  770  321    -1.6       
18 16.12.13 080 (В) 4000 м  дымка  1/0 средняя 
[Ac trans]
-11 -12.6 88 -11  1038.5  1.4  771  325           
21 16.12.13 230 (ЮЗ) 2000 м  в посл. час туман  6/0 средняя 
[Ac trans]
-9.9 -10.4 96 -10  1038.2  -0.4  771  323           
00 17.12.13 тихо ()   2000 м  дымка{туман}  5/0 средняя 
[Ac trans]
-11.1 -11.8 95 -11  1038.5  0.4  771  325           
03 17.12.13 тихо ()   2000 м  дымка  5/0 средняя 
[Ac trans]
-10.3 -10.8 96 -10  1038.4  -0.1  771  324  -12.9         
06 17.12.13 тихо ()   2300 м  дымка  9/0 средняя, верхняя 
[Ac trans|Ci fib]
-9.8 -10.5 95 -10  1038.8  0.3  772  324           
09 17.12.13 220 (ЮЗ) 4000 м  дымка{туман}  9/3 1000 м средняя 
[Sc|Ac trans]
-5.7 -8.8 79 -8  1037.9  -0.5  771  318           
12 17.12.13 230 (ЮЗ) 4000 м  дымка{туман}  9/5 660 м средняя 
[Sc|Ac trans]
-3.7 -7.9 72 -6  1036.4  -1.4  770  315           
15 17.12.13 250 (З) 10 км    10/10 630 м 
[Sc]
-2.9 -8.4 66 -6  1035.7  -0.6  770  314    -2.8       
18 17.12.13 230 (ЮЗ) 10 км    10/10 570 м 
[Sc]
-2.8 -5.9 79 -6  1034.8  -1  769  314           
21 17.12.13 260 (З) 7-11{10}  10 км    10/10 450 м 
[Sc]
-1 -3 86 -5  1033.1  -1.5  768  311           
00 18.12.13 260 (З) 7-10{11}  4000 м  дымка  10/10 300 м 
[Sc]
-0.2 -1.4 92 -4  1031.9  -1  767  309           
03 18.12.13 270 (З) 7-11{11}  10 км    9/9 180 м 
[St]
-1.7 -2.3 96 -6  1029.9  -2  765  311  -3.5         
06 18.12.13 260 (З) 5{11}  4000 м  дымка  10/10 120 м 
[St]
-2 -2.6 96 -5  1029.7  -0.2  765  311           
09 18.12.13 260 (З) 6-10{11}  10 км    ясно 
+0.6 -1.8 84 -3  1028.1  -1.4  764  307           
12 18.12.13 260 (З) 7-10{10}  10 км    3/0 средняя 
[Ac trans]
+1.5 -1 83 -2  1026.7  -1.3  763  306           
15 18.12.13 260 (З) 5{10}  10 км    1/0 средняя 
[Ac trans]
+0.3 -0.8 92 -3  1026.8  763  307    +1.8       
18 18.12.13 280 (З) 4000 м  дымка  9/0 средняя 
[Ac trans]
-0.3 -1.2 93 -3  1026.9  763  308           
00 19.12.13 280 (З) 3000 м  дымка  10/10 180 м 
[Sc]
-0.9 -1.3 97 -2  1027.1  -0.1  763  309           
03 19.12.13 310 (СЗ) 3000 м  дымка  10/10 330 м 
[Sc]
-0.1 -0.7 96 -1  1026.7  -0.3  763  308  -1.5         
06 19.12.13 300 (СЗ) 2800 м  слаб. морось  10/10 270 м 
[St]
+0.1 -0.5 96 -1  1027.5  0.7  764  308           
09 19.12.13 280 (З) 1900 м  слаб. морось  10/10 210 м 
[St]
+0.4 -0.1 96 1027.8  0.3  764  307           
12 19.12.13 230 (ЮЗ) 1500 м  слаб. морось  10/10 150 м 
[St]
+0 -0.3 98 +1  1027.7  -0.1  764  308           
15 19.12.13 тихо ()   1200 м  в посл. час морось  10/10 150 м 
[St]
-0.2 -0.5 98 -0  1028.5  0.8  764  308    +0.5  0.0     
18 19.12.13 тихо ()   0500 м  снежные зёрна{морось}  ?/?  
-0.6 -0.6 100 -1  1029.1  0.5  765  309           
21 19.12.13 240 (ЮЗ) 0800 м  снежные зёрна{туман}  ?/?  
-0.8 -0.8 100 -2  1030  0.7  765  309           
00 20.12.13 280 (З) 4000 м  в посл. час переохл. осадки (гололёд){снег, морось} [диам. гололёда 1 мм]  10/10 240 м 
[Sc]
-0.5 -1.1 96 1031  766  309           
03 20.12.13 210 (ЮЗ) 0900 м  туман{дождь} [диам. гололёда 1 мм]  ?/?  
-1.1 -1.1 100 -3  1031.2  0.2  766  310  -1.1    0.0     
06 20.12.13 220 (ЮЗ) 3000 м  слаб. снег{дождь, туман} [диам. гололёда 0 мм]  10/10 240 м 
[Sc]
-1.1 -1.4 98 -3  1032.3  767  311  -1.2         
09 20.12.13 220 (ЮЗ) 3000 м  {снег}  10/10 200 м 
[Sc]
-0.4 -1 96 -1  1032.8  0.4  767  310           
12 20.12.13 200 (Ю) 4000 м  дымка{снег}  10/10 900 м 
[Sc]
+0 -0.8 94 -1  1032.7  767  309           
15 20.12.13 190 (Ю) 3000 м  дымка  10/10 180 м 
[Sc]
-0.3 -0.7 97 -1  1033.3  0.6  768  310    +0.1  0.0     
18 20.12.13 230 (ЮЗ) 3300 м  дымка  10/10 900 м 
[Sc]
-0.2 -0.6 97 -2  1033.6  0.2  768  310           
21 20.12.13 220 (ЮЗ) 4000 м  дымка  10/10 1000 м 
[Sc]
+0 -0.6 96 -2  1033.3  -0.3  768  309           
00 21.12.13 230 (ЮЗ) 4000 м  дымка  9/9 1000 м 
[Sc]
-0.2 -1.1 94 -3  1033.2  768  310           
03 21.12.13 230 (ЮЗ) 4000 м  дымка  10/10 1000 м 
[Sc]
-0.5 -1.6 92 -3  1032.7  -0.4  767  310  -0.6         
06 21.12.13 140 (ЮВ) 4000 м  дымка  9/9 1000 м 
[Sc]
-0.7 -2.2 90 -2  1031.7  -1  767  310  -1.1         
09 21.12.13 220 (ЮЗ) 4000 м  дымка  9/9 930 м 
[Sc]
-0.3 -1.4 92 -3  1030.3  -1.2  766  309           
12 21.12.13 220 (ЮЗ) 4000 м  дымка  9/9 840 м 
[Sc]
+1.5 +0 90 -1  1027.7  -2.5  764  306           
15 21.12.13 230 (ЮЗ) 4000 м  дымка  3/0 средняя 
[Ac trans]
+1.6 +0.8 94 -2  1026.6  -1  763  306    +1.9       
18 21.12.13 250 (З) 10 км    9/6 630 м средняя 
[Sc|Ac trans]
+3.2 +1.3 87 1025.1  -1.5  762  303           
21 21.12.13 280 (З) 7-10{11}  4000 м  дымка{ливн. осадки, дождь}  10/8 300 м средняя 
[Sc|Ac und]
+1.8 +0.5 91 -2  1025.6  0.5  762  305           
00 22.12.13 260 (З) 5{11}  4000 м  дымка{ливн. осадки, дождь}  10/8 300 м средняя 
[Sc|Ac und]
+1.6 +0.7 94 -1  1026.6  763  306           
03 22.12.13 320 (СЗ) 6{11}  10 км    9/9 870 м 
[Sc]
+2.8 +0.1 82 1028.6  1.9  764  305  +1.4    0.8     
06 22.12.13 280 (З) 4{11}  10 км    9/6 800 м средняя, верхняя 
[Sc|Ac trans|Ci fib]
+2 +0.2 88 1031.5  2.8  767  307           
09 22.12.13 280 (З) 10 км    6/4 750 м средняя, верхняя 
[Sc|Ac trans|Ci fib]
+2.2 -0.5 82 1032.2  0.6  767  307           
12 22.12.13 270 (З) 10 км    5/4 300 м средняя 
[Sc|Ac trans]
+2.7 -0.9 77 1032.1  -0.1  767  306           
15 22.12.13 260 (З) 4000 м  дымка  6/0 средняя, верхняя 
[Ac trans|Ci fib]
+0.8 -0.9 88 -2  1032.1  0.1  767  308    +3.1       
18 22.12.13 270 (З) 4000 м  дымка  6/0 средняя 
[Ac trans]
+1.3 -0.6 87 -1  1032.1  767  308           
21 22.12.13 260 (З) 4000 м  дымка  5/0 средняя 
[Ac trans]
+0.2 -0.4 96 -3  1031.8  -0.3  767  309           
00 23.12.13 260 (З) 4000 м  дымка  8/6 150 м средняя 
[St|Ac trans]
-0.2 -0.5 98 -3  1031.2  -0.5  766  309           
03 23.12.13 250 (З) 1700 м  дымка  9/9 120 м 
[St]
-0.5 -0.8 98 -4  1030.7  -0.6  766  309  -0.5         
06 23.12.13 250 (З) 1000 м  дымка{туман}  10/10 100 м 
[St]
-0.1 -0.1 100 -3  1030.6  766  309           
09 23.12.13 250 (З) 7-10  1000 м  дымка{туман} [диам. изморози 1 мм]  10/8 100 м средняя 
[St|Ac und]
+0.1 -0.2 98 -4  1029.7  -1  765  308           
12 23.12.13 260 (З) 4{10}  4000 м  дымка{туман}  9/9 240 м 
[Sc]
+1.2 +0.3 94 -1  1028.9  -0.9  765  307           
15 23.12.13 250 (З) 4000 м  дымка  10/10 180 м 
[Sc]
+1.4 +0.7 95 -1  1028.9  765  306    +1.6       
18 23.12.13 250 (З) 4000 м  дымка{морось}  10/10 360 м 
[Sc]
+2.3 +1.2 92 1028.6  -0.1  764  305           
00 24.12.13 260 (З) 10 км    10/10 700 м 
[Sc]
+3.2 +1.5 89 +1  1028.3  0.3  764  304           
03 24.12.13 260 (З) 10 км    10/10 750 м 
[Sc]
+3.5 +1.4 86 +2  1028.1  -0.2  764  304  +1.4    0.0     
06 24.12.13 250 (З) 10 км    9/6 700 м средняя 
[Sc|Ac trans]
+2.8 +1.5 91 1029.3  1.1  765  305           
09 24.12.13 260 (З) 10 км    6/4 600 м средняя 
[Sc|Ac trans]
+5.6 +1.9 77 +4  1029.6  0.4  765  302           
12 24.12.13 260 (З) 6-10{11}  10 км    6/1 600 м средняя 
[Sc|Ac trans]
+5.5 +1.8 77 +3  1029.9  0.3  765  302           
15 24.12.13 270 (З) 2{10}  10 км    9/6 450 м средняя 
[Sc|Ac trans]
+3.9 +2.1 88 +3  1031.2  1.3  766  304    +6       
18 24.12.13 220 (ЮЗ) 1{10}  4000 м  дымка  10/10 400 м 
[Sc]
+3.3 +2 91 +4  1032  0.7  767  305           
21 24.12.13 270 (З) 4000 м  дымка  10/10 270 м 
[Sc]
+3.7 +2.5 92 +3  1033.1  768  305           
00 25.12.13 250 (З) 4000 м  дымка  10/10 450 м 
[Sc]
+1.8 +1.4 97 +3  1032.9  -0.3  768  307           
03 25.12.13 230 (ЮЗ) 4000 м  дымка  10/10 400 м 
[Sc]
+2.7 +1.8 94 +2  1033.1  0.2  768  306  +1.7         
09 25.12.13 150 (ЮВ) 10 км    10/10 240 м 
[Sc]
+3 +1.7 91 +2  1033.7  -0.1  768  306           
12 25.12.13 130 (ЮВ) 10 км    10/10 240 м 
[Sc]
+3.2 +1.9 91 +4  1032.4  -1.1  767  305           
15 25.12.13 100 (В) 4000 м  дымка  10/10 150 м 
[St]
+2.3 +1.9 97 +1  1033.1  0.6  768  306    +3.4       
18 25.12.13 100 (В) 0100 м  туман  ?/?  
+0.7 +0.7 100 -2  1032.1  -1  767  308           
21 25.12.13 100 (В) 0100 м  туман  ?/?  
+0.2 +0.2 100 -3  1031  -1.1  766  308           
00 26.12.13 090 (В) 0100 м  туман  ?/?  
+0 +0 100 -3  1030.5  -0.5  766  309           
03 26.12.13 090 (В) 0200 м  слаб. переохл. морось (гололёд){туман} [диам. гололёда 1 мм]  ?/?  
-0.9 -0.9 100 -5  1029.5  -1  765  309  -0.9    0.0     
06 26.12.13 080 (В) 0200 м  слаб. переохл. морось (гололёд){туман} [диам. гололёда 3 мм]  ?/?  
-0.9 -0.9 100 -5  1029.5  -0.1  765  309  -1.1         
09 26.12.13 080 (В) 8-11{11}  0200 м  туман{морось} [диам. гололёда 5 мм]  ?/?  
-0.5 -0.5 100 -5  1028.2  -1.1  764  308           
12 26.12.13 090 (В) 9-12{12}  3000 м  дымка{морось, туман} [диам. гололёда 2 мм]  10/10 100 м 
[St]
+0.1 +0 99 -4  1027  -1.2  763  307           
15 26.12.13 100 (В) 9-12{12}  0400 м  туман  ?/?  
+0.1 +0.1 100 -4  1026.7  -0.1  763  307    +0.4  0.0     
18 26.12.13 100 (В) 11-14{14}  0300 м  туман  ?/?  
-0.4 -0.4 100 -6  1026.5  -0.2  763  308           
21 26.12.13 110 (В) 9-13{14}  4000 м  дымка{туман}  10/10 150 м 
[St]
+0.5 -0.1 96 -4  1026.2  -0.3  763  307           
00 27.12.13 100 (В) 7-10{14}  4000 м  дымка{туман} [диам. изморози 1 мм]  10/10 180 м 
[St]
+1.1 +0.7 97 -3  1026.4  0.2  763  306           
03 27.12.13 100 (В) 7-10  4000 м  дымка  10/10 200 м 
[St]
+1.2 +0.6 96 -2  1026.1  -0.2  762  306  -0.6         
06 27.12.13 090 (В) 4{10}  4000 м  дымка  9/6 240 м средняя 
[Sc|Ac trans]
+1.1 +0.5 96 -1  1027.3  1.1  763  306           
09 27.12.13 100 (В) 10 км    9/5 400 м средняя 
[Sc|Ac trans]
+3.2 +1.8 90 1027.4  0.2  764  304           
12 27.12.13 100 (В) 10 км    10/5 400 м средняя 
[Sc|Ac und]
+3.7 +2 89 +1  1027.1  -0.3  763  303           
15 27.12.13 100 (В) 10 км    10/6 450 м средняя 
[Sc|Ac und]
+3 +2 93 +1  1027.6  0.6  764  304    +4.2       
18 27.12.13 100 (В) 10 км    10/10 210 м 
[St]
+2.6 +1.7 94 1027.8  0.3  764  305           
21 27.12.13 090 (В) 10 км    10/10 180 м 
[St]
+2 +1.3 95 1027.4  -0.4  764  305           
00 28.12.13 100 (В) 2500 м  дымка  10/10 100 м 
[St]
+1.9 +1.5 97 1027.7  0.3  764  305           
03 28.12.13 100 (В) 4000 м  дымка  10/10 150 м 
[St]
+1.8 +1.1 95 1028  0.3  764  306  +1.7         
06 28.12.13 100 (В) 4000 м  дымка  10/10 180 м 
[Sc]
+1.7 +1 95 1028.7  0.6  764  306           
09 28.12.13 110 (В) 4000 м  дымка  10/10 180 м 
[Sc]
+2 +1.3 95 1028.4  -0.2  764  306           
12 28.12.13 100 (В) 4000 м    10/10 150 м 
[St]
+2 +1.4 96 1028  -0.3  764  305           
15 28.12.13 100 (В) 4000 м  дымка  10/10 150 м 
[St]
+2.3 +1.7 96 1028.4  0.4  764  305    +2.3       
18 28.12.13 100 (В) 10 км    10/10 420 м 
[Sc]
+2.5 +1.9 96 1028.5  0.1  764  305           
21 28.12.13 090 (В) 10 км    10/10 180 м 
[Sc]
+2.2 +1.8 97 1027.8  -0.6  764  305           
00 29.12.13 080 (В) 1000 м  дымка  10/10 100 м 
[St]
+1.5 +1.4 99 -1  1027.5  -0.4  764  306           
03 29.12.13 080 (В) 3000 м  дымка  10/10 100 м 
[St]
+1.3 +1.2 99 -1  1027.5  764  306  +1.3         
06 29.12.13 070 (В) 3000 м  дымка  10/10 100 м 
[St]
+1.3 +1 98 -1  1027.7  0.2  764  306  +1.2         
09 29.12.13 070 (В) 4000 м  дымка  10/10 120 м 
[St]
+2.3 +1.6 95 1027.1  -0.4  763  305           
12 29.12.13 070 (В) 10 км    10/10 180 м 
[St]
+3.2 +2.4 95 +1  1026.1  -0.9  763  303           
15 29.12.13 080 (В) 4000 м  дымка  10/10 180 м 
[St]
+2.6 +2.1 96 1026.8  0.6  763  304    +3.2       
18 29.12.13 080 (В) 4000 м  дымка  10/10 150 м 
[St]
+1.5 +1.1 97 -1  1026.9  0.1  763  306           
21 29.12.13 080 (В) 4000 м  дымка  10/10 120 м 
[St]
+1.2 +0.8 97 -2  1026.5  -0.5  763  306           
00 30.12.13 080 (В) 4000 м  дымка  10/10 120 м 
[St]
+1.2 +0.9 98 -1  1025.8  -0.6  762  306           
03 30.12.13 080 (В) 4000 м  дымка  10/10 120 м 
[St]
+1.1 +0.8 98 -1  1026.1  0.2  762  306  +1.1         
06 30.12.13 080 (В) 10 км    10/10 180 м 
[St]
+1.5 +0.9 96 1026.3  0.3  763  306           
09 30.12.13 080 (В) 10 км    10/10 210 м 
[Sc]
+2.5 +1.5 93 1025.4  -0.8  762  304           
12 30.12.13 080 (В) 10 км    10/10 330 м 
[Sc]
+3.3 +1.8 90 +2  1024.8  -0.6  762  303           
15 30.12.13 060 (СВ) 10 км    10/10 240 м 
[Sc]
+2.4 +1.6 94 1025.5  0.6  762  304    +3.4       
18 30.12.13 070 (В) 4000 м  дымка  10/10 210 м 
[Sc]
+2 +1.5 97 +1  1025.2  -0.1  762  305           
21 30.12.13 080 (В) 4000 м  дымка  10/10 150 м 
[St]
+1.4 +1.1 98 1025.4  0.1  762  305           
00 31.12.13 050 (СВ) 4000 м  дымка  10/10 180 м 
[St]
+1.5 +1.1 97 1025.7  0.3  762  305           
03 31.12.13 040 (СВ) 4000 м  дымка  10/10 180 м 
[Sc]
+1.7 +1.1 96 +1  1025.8  0.1  762  305  +1.4         
06 31.12.13 060 (СВ) 4000 м  дымка  10/10 570 м 
[Sc]
+1.8 +1.3 97 +1  1026.9  763  305           
09 31.12.13 060 (СВ) 4000 м  дымка  10/10 660 м 
[Sc]
+2.5 +1.4 92 +2  1027.1  0.1  763  305           
12 31.12.13 030 (СВ) 10 км    10/10 630 м 
[Sc]
+3 +1.6 90 +2  1027.1  763  304           
15 31.12.13 040 (СВ) 10 км    10/10 240 м 
[Sc]
+2.8 +1.5 91 +1  1028.3  1.2  764  305    +3.2       
18 31.12.13 050 (СВ) 10 км  слаб. морось  10/10 240 м 
[St]
+2.1 +1.6 96 +1  1029.7  1.2  765  306           
21 31.12.13 060 (СВ) 4000 м  слаб. дождь{морось}  10/8 180 м средняя 
[Frnb|As op]
+0.8 +0.4 97 1030.4  0.7  766  308           
03 01.01.14 060 (СВ) 10 км  {дождь}  10/10 240 м 
[Sc]
+0.5 -0.2 95 -2  1031.3  0.3  766  308  +0.5    0.6     
06 01.01.14 070 (В) 10 км  в посл. час снег{дождь}  10/10 180 м 
[St]
+0.5 -0.1 96 -2  1032.4  1.2  767  309  +0.4         
09 01.01.14 090 (В) 4000 м  дымка  10/10 240 м 
[St]
+1.1 +0.2 94 -2  1032.4  767  308           
12 01.01.14 080 (В) 10 км    10/10 330 м 
[Sc]
+1.6 +0.4 92 -2  1032  -0.3  767  307           
15 01.01.14 070 (В) 10 км    10/10 240 м 
[St]
+0.4 -0.3 95 -3  1032.4  0.4  767  309    +1.6  0.0     
18 01.01.14 080 (В) 10 км    10/10 240 м 
[Sc]
-0.3 -1 95 -3  1032.6  0.2  767  310           
21 01.01.14 100 (В) 10 км    10/10 210 м 
[Sc]
-1.1 -1.8 95 -4  1032  -0.6  767  310           
00 02.01.14 090 (В) 10 км    10/10 240 м 
[Sc]
-1.3 -2.2 94 -5  1031.7  -0.3  767  311           
03 02.01.14 090 (В) 10 км    10/10 570 м 
[Sc]
-1.2 -2.4 92 -4  1031.1  -0.6  766  310  -1.4         
09 02.01.14 100 (В) 10 км    10/10 270 м 
[Sc]
-0.5 -2.2 88 -4  1029.7  -1.2  765  309           
Время (UTC), дата Ветер
(°,м/с) 
Видим.   Явления Облачность Т
(°С)
Тd
(°С)
f(%) Тe
(°С)
Pmin
(гПа)
dP
(гПа)
Po
(мм)
O2
(г/м3)
Тmin Tmax R s Состояние
почвы